Flag for U.S.A. Weather past 2 weeks in Trenton, New Jersey, U.S.A.

Now
87 °F

Sunny.


Feels Like: 85 °F
Forecast: 65 / 87 °F
Wind: 7 mph from North

Location: Mercer County Airport

Current Time: Aug 2, 2015 at 2:25:40 PM

Latest Report: Aug 2, 2015 at 1:53 PM


Visibility: 10 mi

Pressure: 29.89 "Hg

Humidity: 30%

Dew point: 52 °F

Location of TrentonLocation

Historic Weather in Trenton — Graph

°F

Trenton temperature yesterday

Maximum temperature yesterday: 90 °F (at 4:53 PM)
Minimum temperature yesterday: 69 °F (at 5:53 AM)
Average temperature yesterday: 79 °F

Past Weeks' High & Low Weather Summary

 TemperatureHumidityPressure
High94 °F (Jul 19, 4:53 PM)94% (Jul 30, 9:53 PM)30.03 "Hg (Jul 30, 9:53 PM)
Low62 °F (Jul 23, 5:53 AM)25% (Aug 1, 4:53 PM)29.57 "Hg (Jul 21, 5:53 PM)
Average78 °F63%29.86 "Hg
* Reported Jul 18 12:53 PM — Aug 2 12:53 PM, Trenton, Weather by CustomWeather, © 2015

Note: Actual official high and low records may vary slightly from our data, if they occured in-between our weather recording intervals... More about our weather records

Advertising

Trenton weather history for previous 24 hours

 ConditionsComfort  
Time TempWeatherWind HumidityBarometerVisibility
12:53 PM
Sun, Aug 2
85 °FSunny.3 mph31%29.91 "Hg10 mi
11:53 AM84 °FSunny.N/A35%29.92 "Hg10 mi
10:53 AM82 °FSunny.No wind40%29.92 "Hg10 mi
9:53 AM79 °FSunny.No wind56%29.91 "Hg10 mi
8:53 AM75 °FSunny.3 mph62%29.90 "Hg10 mi
7:53 AM72 °FSunny.5 mph64%29.90 "Hg10 mi
6:53 AM67 °FClear.6 mph79%29.88 "Hg10 mi
5:53 AM65 °FClear.5 mph81%29.87 "Hg10 mi
4:53 AM66 °FClear.7 mph78%29.86 "Hg10 mi
3:53 AM67 °FClear.3 mph76%29.86 "Hg10 mi
2:53 AM67 °FPassing clouds.No wind76%29.86 "Hg10 mi
1:53 AM69 °FClear.No wind73%29.85 "Hg10 mi
12:53 AM70 °FClear.No wind68%29.85 "Hg10 mi
11:53 PM
Sat, Aug 1
73 °FClear.No wind59%29.84 "Hg10 mi
10:53 PM74 °FClear.3 mph57%29.84 "Hg10 mi
9:53 PM76 °FClear.5 mph52%29.83 "Hg10 mi
8:53 PM80 °FSunny.3 mph45%29.82 "Hg10 mi
7:53 PM82 °FSunny.5 mph43%29.80 "Hg10 mi
6:53 PM85 °FSunny.9 mph35%29.78 "Hg10 mi
5:53 PM88 °FScattered clouds.10 mph28%29.77 "Hg10 mi
4:53 PM90 °FScattered clouds.14 mph25%29.77 "Hg10 mi
3:53 PM89 °FPassing clouds.10 mph30%29.77 "Hg10 mi
2:53 PM87 °FScattered clouds.12 mph39%29.78 "Hg10 mi
Weather by CustomWeather, © 2015

See weather overviewHow to use our weather pages